Location: Karlovy Vary
(50.2170°N, 12.9000°E)
Time: 16:49:57
(UTC+02:00)

ISS - Visible Passes

Search period start: 21 September 2023 00:00
Search period end: 01 October 2023 00:00
Orbit: 414 x 422 km, 51.6° (Epoch: 21 September)

Date Brightness Start Highest point End Pass type
(mag) Time Alt. Az. Time Alt. Az. Time Alt. Az.
21 Sep -3.6 20:50:47 10° W 20:54:07 66° N 20:55:07 41° ENE visible
21 Sep -0.6 22:27:40 10° WNW 22:28:03 13° WNW 22:28:03 13° WNW visible
22 Sep -3.6 20:02:49 10° W 20:06:09 71° N 20:08:58 14° ENE visible
22 Sep -2.3 21:39:43 10° WNW 21:41:53 37° WNW 21:41:53 37° WNW visible
23 Sep -3.7 20:51:44 10° WNW 20:55:04 71° N 20:55:41 54° ENE visible
23 Sep -0.3 22:28:34 10° WNW 22:28:35 10° WNW 22:28:35 10° WNW visible
24 Sep -3.6 20:03:41 10° W 20:07:02 66° N 20:09:26 17° E visible
24 Sep -1.9 21:40:31 10° WNW 21:42:22 29° W 21:42:22 29° W visible
25 Sep -4.0 20:52:28 10° WNW 20:55:49 85° SSW 20:56:06 73° SE visible
26 Sep -3.8 20:04:23 10° WNW 20:07:45 80° NNE 20:09:50 21° E visible
26 Sep -1.4 21:41:17 10° W 21:42:45 21° W 21:42:45 21° W visible
27 Sep -3.3 20:53:05 10° WNW 20:56:20 48° SSW 20:56:28 48° SSW visible
28 Sep -3.6 20:04:54 10° WNW 20:08:14 67° SSW 20:10:13 22° ESE visible
28 Sep -0.9 21:42:18 10° W 21:43:08 14° WSW 21:43:08 14° WSW visible
29 Sep -3.7 19:16:43 10° WNW 19:20:05 86° SSW 19:23:25 10° ESE visible
29 Sep -2.1 20:53:45 10° W 20:56:33 25° SW 20:56:53 24° SSW visible
30 Sep -2.5 20:05:22 10° W 20:08:28 35° SSW 20:10:42 16° SSE visible
